TimeEDT,TemperatureF,Dew PointF,Humidity,Sea Level PressureIn,VisibilityMPH,Wind Direction,Wind SpeedMPH,Gust SpeedMPH,PrecipitationIn,Events,Conditions,WindDirDegrees,DateUTC
12:16 AM,41.0,41.0,100,30.25,0.5,Calm,Calm,-,N/A,Fog,Fog,0,2013-10-10 04:16:00
12:36 AM,39.2,39.2,100,30.24,0.5,Calm,Calm,-,N/A,Fog,Fog,0,2013-10-10 04:36:00
12:56 AM,39.2,39.2,100,30.24,0.8,Calm,Calm,-,N/A,,Mostly Cloudy,0,2013-10-10 04:56:00
1:16 AM,39.2,39.2,100,30.24,0.8,Calm,Calm,-,N/A,,Mist,0,2013-10-10 05:16:00
1:36 AM,41.0,41.0,100,30.24,7.0,Calm,Calm,-,N/A,,Clear,0,2013-10-10 05:36:00
1:56 AM,39.2,39.2,100,30.23,1.5,Calm,Calm,-,N/A,,Mist,0,2013-10-10 05:56:00
2:16 AM,39.2,39.2,100,30.24,1.5,Calm,Calm,-,N/A,,Mist,0,2013-10-10 06:16:00
2:36 AM,39.2,39.2,100,30.24,3.0,Calm,Calm,-,N/A,,Clear,0,2013-10-10 06:36:00
2:56 AM,39.2,39.2,100,30.24,1.0,Calm,Calm,-,N/A,,Mist,0,2013-10-10 06:56:00
3:16 AM,41.0,41.0,100,30.23,1.2,Calm,Calm,-,N/A,,Mist,0,2013-10-10 07:16:00
3:36 AM,41.0,41.0,100,30.23,10.0,Calm,Calm,-,N/A,,Clear,0,2013-10-10 07:36:00
3:56 AM,41.0,41.0,100,30.22,7.0,Calm,Calm,-,N/A,,Clear,0,2013-10-10 07:56:00
4:16 AM,41.0,41.0,100,30.23,10.0,Calm,Calm,-,N/A,,Clear,0,2013-10-10 08:16:00
4:36 AM,39.2,39.2,100,30.23,0.5,Calm,Calm,-,N/A,Fog,Fog,0,2013-10-10 08:36:00
4:56 AM,39.2,39.2,100,30.23,10.0,Calm,Calm,-,N/A,,Scattered Clouds,0,2013-10-10 08:56:00
5:16 AM,39.2,39.2,100,30.23,7.0,Calm,Calm,-,N/A,,Clear,0,2013-10-10 09:16:00
5:36 AM,37.4,37.4,100,30.24,1.2,Calm,Calm,-,N/A,,Mist,0,2013-10-10 09:36:00
5:56 AM,37.4,37.4,100,30.24,0.5,Calm,Calm,-,N/A,Fog,Fog,0,2013-10-10 09:56:00
6:16 AM,37.4,37.4,100,30.24,0.5,Calm,Calm,-,N/A,Fog,Fog,0,2013-10-10 10:16:00
6:36 AM,37.4,37.4,100,30.24,1.0,Calm,Calm,-,N/A,,Mist,0,2013-10-10 10:36:00
6:56 AM,35.6,35.6,100,30.24,0.5,Calm,Calm,-,N/A,Fog,Fog,0,2013-10-10 10:56:00
7:16 AM,35.6,35.6,100,30.24,0.8,Calm,Calm,-,N/A,,Mist,0,2013-10-10 11:16:00
7:28 AM,35.6,35.6,100,30.24,3.0,Calm,Calm,-,N/A,,Clear,0,2013-10-10 11:28:00
7:56 AM,35.6,35.6,100,30.24,4.0,Calm,Calm,-,N/A,,Clear,0,2013-10-10 11:56:00
8:16 AM,37.4,37.4,100,30.25,5.0,Calm,Calm,-,N/A,,Clear,0,2013-10-10 12:16:00
8:36 AM,39.2,39.2,100,30.25,10.0,Calm,Calm,-,N/A,,Clear,0,2013-10-10 12:36:00
8:56 AM,42.8,42.8,100,30.25,10.0,Calm,Calm,-,N/A,,Clear,0,2013-10-10 12:56:00
9:16 AM,46.4,46.4,100,30.25,10.0,Calm,Calm,-,N/A,,Clear,0,2013-10-10 13:16:00
9:36 AM,50.0,50.0,100,30.25,10.0,Calm,Calm,-,N/A,,Clear,0,2013-10-10 13:36:00
9:56 AM,53.6,53.6,100,30.25,10.0,Calm,Calm,-,N/A,,Clear,0,2013-10-10 13:56:00
10:16 AM,57.2,53.6,88,30.25,10.0,ESE,3.5,-,N/A,,Clear,110,2013-10-10 14:16:00
10:36 AM,59.0,53.6,82,30.25,10.0,SE,3.5,-,N/A,,Clear,140,2013-10-10 14:36:00
10:56 AM,62.6,53.6,72,30.24,10.0,South,3.5,-,N/A,,Clear,170,2013-10-10 14:56:00
11:16 AM,62.6,53.6,72,30.24,10.0,SE,5.8,-,N/A,,Clear,130,2013-10-10 15:16:00
11:36 AM,64.4,53.6,68,30.24,10.0,SE,4.6,-,N/A,,Clear,130,2013-10-10 15:36:00
11:56 AM,64.4,51.8,64,30.24,10.0,ESE,5.8,-,N/A,,Clear,120,2013-10-10 15:56:00
12:16 PM,66.2,51.8,60,30.24,10.0,SE,4.6,-,N/A,,Clear,140,2013-10-10 16:16:00
12:36 PM,66.2,51.8,60,30.23,10.0,East,3.5,-,N/A,,Clear,80,2013-10-10 16:36:00
12:56 PM,66.2,48.2,52,30.22,10.0,SE,5.8,-,N/A,,Clear,130,2013-10-10 16:56:00
1:16 PM,68.0,48.2,49,30.22,10.0,Calm,Calm,-,N/A,,Clear,0,2013-10-10 17:16:00
1:36 PM,68.0,48.2,49,30.22,10.0,SE,6.9,-,N/A,,Clear,130,2013-10-10 17:36:00
1:56 PM,68.0,46.4,46,30.21,10.0,South,4.6,-,N/A,,Clear,190,2013-10-10 17:56:00
2:16 PM,68.0,46.4,46,30.20,10.0,SE,6.9,-,N/A,,Clear,130,2013-10-10 18:16:00
2:36 PM,69.8,44.6,40,30.19,10.0,Calm,Calm,-,N/A,,Clear,0,2013-10-10 18:36:00
2:56 PM,69.8,46.4,43,30.19,10.0,ESE,6.9,-,N/A,,Clear,120,2013-10-10 18:56:00
3:16 PM,69.8,46.4,43,30.18,10.0,South,3.5,-,N/A,,Clear,170,2013-10-10 19:16:00
3:36 PM,69.8,44.6,40,30.18,10.0,Calm,Calm,-,N/A,,Clear,0,2013-10-10 19:36:00
3:56 PM,69.8,44.6,40,30.18,10.0,South,3.5,-,N/A,,Clear,180,2013-10-10 19:56:00
4:16 PM,69.8,44.6,40,30.17,10.0,South,3.5,-,N/A,,Clear,190,2013-10-10 20:16:00
4:36 PM,69.8,44.6,40,30.17,10.0,SE,3.5,-,N/A,,Clear,140,2013-10-10 20:36:00
4:56 PM,69.8,44.6,40,30.17,10.0,ESE,6.9,-,N/A,,Clear,110,2013-10-10 20:56:00
5:16 PM,69.8,42.8,38,30.16,10.0,ENE,4.6,-,N/A,,Clear,60,2013-10-10 21:16:00
5:36 PM,66.2,51.8,60,30.16,10.0,NE,6.9,-,N/A,,Clear,40,2013-10-10 21:36:00
5:56 PM,64.4,51.8,64,30.16,10.0,NE,6.9,-,N/A,,Clear,50,2013-10-10 21:56:00
6:16 PM,62.6,51.8,68,30.16,10.0,NNE,3.5,-,N/A,,Clear,30,2013-10-10 22:16:00
6:36 PM,60.8,51.8,72,30.16,10.0,NE,4.6,-,N/A,,Clear,40,2013-10-10 22:36:00
6:56 PM,55.4,50.0,82,30.16,10.0,Calm,Calm,-,N/A,,Clear,0,2013-10-10 22:56:00
7:16 PM,53.6,48.2,82,30.16,10.0,Calm,Calm,-,N/A,,Clear,0,2013-10-10 23:16:00
7:36 PM,51.8,50.0,94,30.16,10.0,Calm,Calm,-,N/A,,Clear,0,2013-10-10 23:36:00
7:56 PM,50.0,48.2,94,30.16,10.0,Calm,Calm,-,N/A,,Clear,0,2013-10-10 23:56:00
8:16 PM,48.2,48.2,100,30.16,10.0,Calm,Calm,-,N/A,,Clear,0,2013-10-11 00:16:00
8:36 PM,46.4,46.4,100,30.16,10.0,Calm,Calm,-,N/A,,Clear,0,2013-10-11 00:36:00
8:56 PM,46.4,46.4,100,30.16,10.0,Calm,Calm,-,N/A,,Clear,0,2013-10-11 00:56:00
9:16 PM,46.4,46.4,100,30.16,10.0,Calm,Calm,-,N/A,,Clear,0,2013-10-11 01:16:00
9:36 PM,44.6,44.6,100,30.16,0.8,Calm,Calm,-,N/A,,Mist,0,2013-10-11 01:36:00
9:56 PM,46.4,46.4,100,30.17,10.0,Calm,Calm,-,N/A,,Clear,0,2013-10-11 01:56:00
10:16 PM,44.6,44.6,100,30.16,10.0,Calm,Calm,-,N/A,,Clear,0,2013-10-11 02:16:00
10:36 PM,46.4,46.4,100,30.16,7.0,Calm,Calm,-,N/A,,Clear,0,2013-10-11 02:36:00
10:56 PM,42.8,42.8,100,30.15,0.2,Calm,Calm,-,N/A,Fog,Fog,0,2013-10-11 02:56:00
11:16 PM,44.6,44.6,100,30.15,7.0,Calm,Calm,-,N/A,,Scattered Clouds,0,2013-10-11 03:16:00
11:36 PM,42.8,42.8,100,30.14,2.5,Calm,Calm,-,N/A,,Clear,0,2013-10-11 03:36:00
11:56 PM,42.8,42.8,100,30.14,0.2,Calm,Calm,-,N/A,Fog,Fog,0,2013-10-11 03:56:00